TimeCDT,TemperatureF,Dew PointF,Humidity,Sea Level PressureIn,VisibilityMPH,Wind Direction,Wind SpeedMPH,Gust SpeedMPH,PrecipitationIn,Events,Conditions,WindDirDegrees,DateUTC
12:15 AM,44.6,24.8,46,30.06,10.0,WSW,12.7,-,N/A,,Mostly Cloudy,240,2013-10-26 05:15:00
12:35 AM,42.8,24.8,49,30.05,10.0,SW,12.7,-,N/A,,Mostly Cloudy,230,2013-10-26 05:35:00
12:55 AM,42.8,24.8,49,30.03,10.0,SW,15.0,-,N/A,,Clear,230,2013-10-26 05:55:00
1:15 AM,42.8,24.8,49,30.02,10.0,SW,16.1,-,N/A,,Clear,230,2013-10-26 06:15:00
1:35 AM,42.8,24.8,49,30.01,10.0,SW,15.0,-,N/A,,Clear,230,2013-10-26 06:35:00
1:55 AM,44.6,24.8,46,30.00,10.0,SW,18.4,21.9,N/A,,Clear,230,2013-10-26 06:55:00
2:15 AM,44.6,24.8,46,29.98,10.0,SW,17.3,21.9,N/A,,Clear,230,2013-10-26 07:15:00
2:35 AM,44.6,24.8,46,29.96,10.0,SW,19.6,26.5,N/A,,Clear,230,2013-10-26 07:35:00
2:55 AM,46.4,24.8,43,29.95,10.0,WSW,19.6,26.5,N/A,,Clear,240,2013-10-26 07:55:00
3:15 AM,46.4,24.8,43,29.94,10.0,SW,20.7,33.4,N/A,,Clear,230,2013-10-26 08:15:00
3:35 AM,44.6,24.8,46,29.93,10.0,WSW,21.9,29.9,N/A,,Clear,240,2013-10-26 08:35:00
3:55 AM,44.6,24.8,46,29.93,10.0,WSW,19.6,25.3,N/A,,Clear,240,2013-10-26 08:55:00
4:15 AM,44.6,24.8,46,29.92,10.0,WSW,13.8,19.6,N/A,,Clear,250,2013-10-26 09:15:00
4:35 AM,44.6,24.8,46,29.92,10.0,WSW,16.1,23.0,N/A,,Clear,250,2013-10-26 09:35:00
4:55 AM,42.8,24.8,49,29.92,10.0,WSW,16.1,19.6,N/A,,Clear,250,2013-10-26 09:55:00
5:15 AM,42.8,24.8,49,29.92,10.0,WSW,13.8,-,N/A,,Clear,250,2013-10-26 10:15:00
5:35 AM,42.8,24.8,49,29.92,10.0,West,15.0,21.9,N/A,,Clear,260,2013-10-26 10:35:00
5:55 AM,42.8,26.6,53,29.92,10.0,WSW,12.7,-,N/A,,Clear,250,2013-10-26 10:55:00
6:15 AM,42.8,26.6,53,29.92,10.0,West,11.5,18.4,N/A,,Mostly Cloudy,260,2013-10-26 11:15:00
6:35 AM,44.6,26.6,49,29.92,10.0,West,13.8,-,N/A,,Overcast,260,2013-10-26 11:35:00
6:55 AM,42.8,26.6,53,29.92,10.0,West,12.7,-,N/A,,Scattered Clouds,260,2013-10-26 11:55:00
7:15 AM,41.0,26.6,57,29.92,10.0,West,11.5,17.3,N/A,,Clear,270,2013-10-26 12:15:00
7:35 AM,41.0,28.4,61,29.93,10.0,West,11.5,-,N/A,,Clear,270,2013-10-26 12:35:00
7:55 AM,41.0,28.4,61,29.93,10.0,West,11.5,-,N/A,,Clear,260,2013-10-26 12:55:00
8:15 AM,41.0,28.4,61,29.94,10.0,West,11.5,-,N/A,,Clear,270,2013-10-26 13:15:00
8:35 AM,42.8,28.4,57,29.94,10.0,West,11.5,18.4,N/A,,Clear,270,2013-10-26 13:35:00
8:55 AM,44.6,30.2,57,29.95,10.0,WNW,13.8,-,N/A,,Clear,290,2013-10-26 13:55:00
9:15 AM,44.6,30.2,57,29.95,10.0,WNW,13.8,19.6,N/A,,Clear,290,2013-10-26 14:15:00
9:35 AM,46.4,32.0,57,29.95,10.0,WNW,16.1,20.7,N/A,,Clear,290,2013-10-26 14:35:00
9:55 AM,46.4,30.2,53,29.96,10.0,NW,16.1,21.9,N/A,,Clear,310,2013-10-26 14:55:00
10:15 AM,46.4,30.2,53,29.97,10.0,NW,15.0,20.7,N/A,,Clear,310,2013-10-26 15:15:00
10:35 AM,48.2,30.2,50,29.98,10.0,NW,20.7,26.5,N/A,,Clear,320,2013-10-26 15:35:00
10:55 AM,48.2,30.2,50,29.99,10.0,NW,18.4,25.3,N/A,,Clear,310,2013-10-26 15:55:00
11:15 AM,50.0,30.2,47,29.98,10.0,NW,18.4,26.5,N/A,,Clear,310,2013-10-26 16:15:00
11:35 AM,51.8,30.2,44,30.00,10.0,NW,17.3,24.2,N/A,,Clear,320,2013-10-26 16:35:00
11:55 AM,48.2,28.4,46,30.01,10.0,NW,17.3,21.9,N/A,,Partly Cloudy,320,2013-10-26 16:55:00
12:15 PM,48.2,28.4,46,30.01,10.0,NW,18.4,23.0,N/A,,Clear,310,2013-10-26 17:15:00
12:35 PM,48.2,28.4,46,30.01,10.0,NW,19.6,25.3,N/A,,Clear,320,2013-10-26 17:35:00
12:55 PM,51.8,28.4,41,30.01,10.0,NNW,16.1,23.0,N/A,,Clear,330,2013-10-26 17:55:00
1:15 PM,51.8,28.4,41,30.01,10.0,NW,15.0,28.8,N/A,,Partly Cloudy,320,2013-10-26 18:15:00
1:35 PM,53.6,28.4,38,30.02,10.0,NW,19.6,27.6,N/A,,Scattered Clouds,310,2013-10-26 18:35:00
1:55 PM,53.6,30.2,41,30.03,10.0,NW,19.6,28.8,N/A,,Mostly Cloudy,320,2013-10-26 18:55:00
2:15 PM,51.8,28.4,41,30.03,10.0,NW,16.1,25.3,N/A,,Scattered Clouds,310,2013-10-26 19:15:00
2:35 PM,51.8,28.4,41,30.03,10.0,NW,16.1,26.5,N/A,,Partly Cloudy,320,2013-10-26 19:35:00
2:55 PM,51.8,28.4,41,30.03,10.0,WNW,16.1,25.3,N/A,,Partly Cloudy,300,2013-10-26 19:55:00
3:15 PM,53.6,28.4,38,30.04,10.0,NNW,16.1,23.0,N/A,,Partly Cloudy,330,2013-10-26 20:15:00
3:35 PM,51.8,24.8,35,30.05,10.0,NNW,17.3,21.9,N/A,,Partly Cloudy,340,2013-10-26 20:35:00
3:55 PM,51.8,24.8,35,30.06,10.0,NNW,12.7,23.0,N/A,,Clear,330,2013-10-26 20:55:00
4:15 PM,51.8,23.0,33,30.06,10.0,NNW,18.4,24.2,N/A,,Clear,340,2013-10-26 21:15:00
4:35 PM,51.8,24.8,35,30.06,10.0,NNW,10.4,21.9,N/A,,Clear,330,2013-10-26 21:35:00
4:55 PM,51.8,23.0,33,30.07,10.0,NNW,13.8,21.9,N/A,,Clear,340,2013-10-26 21:55:00
5:15 PM,50.0,24.8,37,30.07,10.0,NNW,10.4,-,N/A,,Clear,330,2013-10-26 22:15:00
5:35 PM,48.2,24.8,40,30.07,10.0,NNW,10.4,-,N/A,,Clear,330,2013-10-26 22:35:00
5:55 PM,46.4,24.8,43,30.08,10.0,NNW,6.9,-,N/A,,Clear,330,2013-10-26 22:55:00
6:15 PM,44.6,23.0,43,30.09,10.0,NNW,6.9,-,N/A,,Clear,330,2013-10-26 23:15:00
6:35 PM,42.8,23.0,46,30.09,10.0,NNW,8.1,-,N/A,,Clear,330,2013-10-26 23:35:00
6:55 PM,41.0,23.0,49,30.10,10.0,NNW,8.1,-,N/A,,Clear,330,2013-10-26 23:55:00
7:15 PM,39.2,23.0,52,30.11,10.0,NNW,5.8,-,N/A,,Clear,330,2013-10-27 00:15:00
7:35 PM,37.4,23.0,56,30.11,10.0,NNW,5.8,-,N/A,,Clear,330,2013-10-27 00:35:00
7:55 PM,35.6,23.0,60,30.11,10.0,NW,5.8,-,N/A,,Clear,320,2013-10-27 00:55:00
8:15 PM,35.6,23.0,60,30.12,10.0,NW,4.6,-,N/A,,Clear,320,2013-10-27 01:15:00
8:35 PM,33.8,24.8,70,30.12,10.0,NW,3.5,-,N/A,,Clear,310,2013-10-27 01:35:00
8:55 PM,32.0,21.2,64,30.12,10.0,West,4.6,-,N/A,,Clear,260,2013-10-27 01:55:00
9:15 PM,30.2,23.0,75,30.12,10.0,WNW,6.9,-,N/A,,Clear,290,2013-10-27 02:15:00
9:35 PM,30.2,21.2,69,30.13,10.0,West,5.8,-,N/A,,Clear,260,2013-10-27 02:35:00
9:55 PM,32.0,23.0,69,30.13,10.0,West,5.8,-,N/A,,Clear,260,2013-10-27 02:55:00
10:15 PM,30.2,21.2,69,30.14,10.0,West,6.9,-,N/A,,Clear,280,2013-10-27 03:15:00
10:35 PM,32.0,24.8,75,30.14,10.0,WNW,6.9,-,N/A,,Clear,290,2013-10-27 03:35:00
10:55 PM,32.0,24.8,75,30.14,10.0,WNW,5.8,-,N/A,,Clear,300,2013-10-27 03:55:00
11:15 PM,32.0,24.8,75,30.14,10.0,West,5.8,-,N/A,,Clear,280,2013-10-27 04:15:00
11:35 PM,32.0,24.8,75,30.13,10.0,WNW,6.9,-,N/A,,Clear,290,2013-10-27 04:35:00
11:55 PM,30.2,24.8,80,30.13,10.0,West,3.5,-,N/A,,Clear,270,2013-10-27 04:55:00